[[{"header":{"parameterUnit":"m.s-1","parameterCategory":1,"la1":30.2991,"la2":30.254,"lo1":-89.0895,"lo2":-89.0444,"dy":0.0017,"dx":0.0017,"nx":28,"ny":28,"refTime":"2025-12-23T09:00:00:Z","depth":0,"parameterNumber":2,"parameterNumberName":"U-component_of_WINDS"},"data":[0,0,0,0,0,0,0,0,0,0,0,0,0,0,0,0,0,0,0,0,0,0,0,0,0,0,0,0,0,0,0,0,0,0,0,0,0,0,0,0,0,0,0,0,0,0,0,0,0,0,0,0,0,0,0,0,0,0,-0.0923,-0.0923,0,-0.0888,-0.0888,-0.0887,-0.0858,-0.0858,-0.0858,-0.0858,-0.082,-0.0819,-0.0819,0,0,0,0,0,0,0,0,0,0,0,0,0,-0.0964,-0.0963,-0.0923,-0.0923,-0.0922,-0.0888,-0.0888,-0.0887,-0.0858,-0.0858,-0.0858,-0.0857,-0.082,-0.0819,-0.0819,0,0,0,0,0,0,0,0,0,0,0,0,0,-0.0939,-0.0963,-0.0923,-0.0904,-0.0902,-0.0888,-0.0888,-0.0887,-0.0859,-0.0858,-0.0858,-0.0857,-0.0821,-0.0819,-0.0818,-0.0821,0,0,-0.0815,-0.0815,0,0,0,0,0,0,0,0,-0.0941,-0.0938,-0.0907,-0.0905,-0.0903,-0.0877,-0.0888,-0.0865,-0.0859,-0.0875,-0.0858,-0.0857,-0.0839,-0.0837,-0.0831,-0.0819,-0.0817,-0.0815,-0.0814,-0.0814,-0.0814,0,0,0,0,0,0,0,-0.0942,-0.0939,-0.0909,-0.0907,-0.0904,-0.0896,-0.0892,-0.0884,-0.086,-0.0873,-0.0871,-0.0868,-0.0838,-0.0832,-0.083,-0.0817,-0.0815,-0.0814,-0.0813,-0.0813,-0.0805,-0.0805,0,0,0,0,0,0,-0.0947,-0.0941,-0.091,-0.0908,-0.0921,-0.0896,-0.0892,-0.0886,-0.086,-0.0856,-0.0868,-0.0866,-0.0834,-0.0831,-0.0828,-0.083,-0.0814,-0.0813,-0.0812,-0.0804,-0.0805,-0.0805,0,0,0,0,0,0,-0.0948,-0.0945,-0.0912,-0.0924,-0.0919,-0.0896,-0.089,-0.0885,-0.0879,-0.0856,-0.0851,-0.0866,-0.0834,-0.083,-0.0823,-0.0828,-0.0812,-0.0811,-0.0804,-0.0805,-0.0805,-0.0832,0,0,0,0,0,0,-0.095,-0.0945,-0.0946,-0.0924,-0.0918,-0.0907,-0.089,-0.0885,-0.0878,-0.0875,-0.0853,-0.0849,-0.0833,-0.0825,-0.0822,-0.0826,-0.0811,-0.0803,-0.0804,-0.0805,-0.0831,-0.0834,-0.0836,0,0,0,0,0,-0.0951,-0.0955,-0.0947,-0.0943,-0.0919,-0.0908,-0.0904,-0.0886,-0.0878,-0.0879,-0.0864,-0.085,-0.0828,-0.0824,-0.0821,-0.0825,-0.0803,-0.0804,-0.0805,-0.083,-0.0833,-0.0836,0,0,0,0,0,0,-0.0978,-0.0952,-0.0942,-0.0939,-0.0926,-0.0903,-0.0903,-0.0891,-0.0879,-0.0877,-0.0855,-0.085,-0.0846,-0.0834,-0.0831,-0.0826,-0.0814,-0.0814,-0.0833,-0.0837,-0.0839,-0.0842,-0.081,0,0,0,0,0,-0.0983,-0.0977,-0.0954,-0.0953,-0.0947,-0.0926,-0.0921,-0.0908,-0.0893,-0.0887,-0.0872,-0.0858,-0.0847,-0.0841,-0.0831,-0.0829,-0.0824,-0.083,-0.0833,-0.0835,-0.0836,-0.0834,-0.0837,-0.0809,-0.0809,-0.0809,0,0,-0.0995,-0.098,-0.0977,-0.0958,-0.0947,-0.094,-0.0922,-0.0915,-0.091,-0.0886,-0.0879,-0.0867,-0.085,-0.0845,-0.0843,-0.0836,-0.0842,-0.0836,-0.0838,-0.0838,-0.0836,-0.0838,-0.0841,-0.0809,-0.0809,-0.0809,0,0,-0.1012,-0.1,-0.0998,-0.0987,-0.097,-0.0956,-0.0956,-0.0935,-0.0926,-0.0919,-0.0901,-0.0894,-0.0877,-0.0865,-0.0857,-0.0871,-0.0857,-0.0868,-0.0882,-0.0881,-0.0883,-0.0885,-0.089,-0.0892,-0.0868,-0.0868,-0.0868,0,-0.1028,-0.1018,-0.0999,-0.0994,-0.0986,-0.0965,-0.0963,-0.0953,-0.0933,-0.0928,-0.0921,-0.0899,-0.0886,-0.0879,-0.0882,-0.0876,-0.0875,-0.087,-0.0884,-0.0886,-0.0888,-0.0892,-0.0894,-0.087,-0.087,-0.0869,-0.0869,0,-0.1039,-0.1032,-0.1032,-0.1015,-0.1007,-0.1003,-0.0983,-0.0978,-0.0966,-0.0953,-0.0945,-0.0929,-0.0915,-0.0912,-0.09,-0.0903,-0.09,-0.0889,-0.0876,-0.0892,-0.0896,-0.0898,-0.0872,-0.0871,-0.0871,-0.087,0,0,-0.1072,-0.1044,-0.1045,-0.1037,-0.1016,-0.101,-0.1005,-0.0992,-0.0988,-0.0975,-0.0971,-0.0957,-0.0947,-0.0938,-0.0924,-0.0923,-0.0935,-0.0912,-0.0911,-0.0917,-0.0939,-0.0948,-0.095,-0.0926,-0.0926,-0.0926,-0.094,0,-0.1087,-0.1078,-0.1061,-0.1057,-0.1051,-0.103,-0.1026,-0.1013,-0.1001,-0.0993,-0.0979,-0.097,-0.0957,-0.0951,-0.0949,-0.0934,-0.0939,-0.0933,-0.0922,-0.0922,-0.0927,-0.0952,-0.0961,-0.0975,-0.0942,-0.0942,-0.0942,0,-0.1103,-0.1092,-0.1088,-0.1068,-0.1065,-0.1062,-0.1048,-0.1041,-0.1026,-0.1017,-0.1007,-0.0992,-0.0986,-0.0974,-0.0965,-0.0961,-0.0955,-0.0947,-0.0947,-0.0946,-0.0933,-0.0952,-0.0979,-0.0981,-0.0944,-0.0944,-0.0944,0,-0.1129,-0.1112,-0.1108,-0.1102,-0.1078,-0.1077,-0.1067,-0.1051,-0.1044,-0.1032,-0.1028,-0.1015,-0.1008,-0.0999,-0.098,-0.0973,-0.0974,-0.096,-0.0966,-0.0967,-0.0968,-0.0968,-0.0995,-0.0963,-0.0963,-0.0963,-0.0963,0,-0.1147,-0.1146,-0.112,-0.1117,-0.1115,-0.1095,-0.1093,-0.1081,-0.1067,-0.1062,-0.1043,-0.1038,-0.1014,-0.1006,-0.0992,-0.0987,-0.0984,-0.0976,-0.0973,-0.0978,-0.098,-0.0975,-0.0974,-0.0963,-0.0963,-0.0963,-0.0963,0,-0.1176,-0.1158,-0.1152,-0.1131,-0.1125,-0.1125,-0.1106,-0.1103,-0.1089,-0.1083,-0.108,-0.1058,-0.1048,-0.1029,-0.1014,-0.1004,-0.1003,-0.0996,-0.1008,-0.1006,-0.1013,-0.1013,-0.1039,-0.1041,-0.1007,-0.1008,-0.1008,0,-0.1189,-0.1188,-0.1166,-0.1162,-0.1153,-0.1145,-0.1138,-0.1118,-0.1112,-0.1094,-0.1093,-0.1082,-0.1072,-0.1057,-0.1039,-0.1028,-0.1021,-0.103,-0.1019,-0.1025,-0.1022,-0.1022,-0.1022,-0.1033,-0.1034,-0.1034,-0.1034,0,-0.1215,-0.1206,-0.1198,-0.1186,-0.1179,-0.1168,-0.1157,-0.1154,-0.1131,-0.1125,-0.1115,-0.1107,-0.1091,-0.108,-0.1066,-0.1055,-0.1041,-0.1038,-0.1039,-0.1045,-0.1053,-0.105,-0.1016,-0.1038,-0.1037,-0.1037,-0.1037,-0.1037,-0.1237,-0.1235,-0.122,-0.121,-0.12,-0.119,-0.1186,-0.1172,-0.1163,-0.1149,-0.1138,-0.1129,-0.1113,-0.1093,-0.1083,-0.1075,-0.1068,-0.107,-0.107,-0.1071,-0.1073,-0.1054,-0.1072,-0.1072,-0.1072,-0.1072,-0.1072,0,-0.1262,-0.1251,-0.1243,-0.1228,-0.1221,-0.1209,-0.1195,-0.119,-0.1183,-0.117,-0.116,-0.1149,-0.1138,-0.112,-0.1108,-0.1105,-0.1099,-0.1103,-0.1103,-0.1101,-0.108,-0.1081,-0.1109,-0.1109,-0.1109,-0.1109,-0.1109,-0.1109,-0.1275,-0.1271,-0.126,-0.1251,-0.124,-0.1232,-0.1225,-0.1216,-0.1205,-0.1194,-0.1185,-0.1173,-0.1158,-0.1145,-0.1134,-0.1129,-0.1126,-0.1132,-0.1125,-0.1106,-0.1103,-0.1099,-0.11,-0.1132,-0.1132,-0.1147,-0.1148,-0.1148]},{"header":{"parameterUnit":"m.s-1","parameterCategory":1,"la1":30.2991,"la2":30.254,"lo1":-89.0895,"lo2":-89.0444,"dy":0.0017,"dx":0.0017,"nx":28,"ny":28,"refTime":"2025-12-23T09:00:00:Z","depth":0,"parameterNumber":3,"parameterNumberName":"V-component_of_WINDS"},"data":[0,0,0,0,0,0,0,0,0,0,0,0,0,0,0,0,0,0,0,0,0,0,0,0,0,0,0,0,0,0,0,0,0,0,0,0,0,0,0,0,0,0,0,0,0,0,0,0,0,0,0,0,0,0,0,0,0,0,0.7099,0.7098,0,0.6989,0.6987,0.6986,0.6957,0.6957,0.6958,0.6959,0.6842,0.6839,0.6835,0,0,0,0,0,0,0,0,0,0,0,0,0,0.7283,0.7279,0.7099,0.7098,0.7097,0.6989,0.6987,0.6986,0.6957,0.6957,0.6958,0.6959,0.6844,0.6839,0.6835,0,0,0,0,0,0,0,0,0,0,0,0,0,0.7191,0.7278,0.71,0.7069,0.7065,0.6989,0.6987,0.6985,0.6956,0.6957,0.6958,0.6959,0.6845,0.684,0.6834,0.678,0,0,0.6817,0.6815,0,0,0,0,0,0,0,0,0.7196,0.7184,0.7075,0.7071,0.7067,0.6988,0.7009,0.6916,0.6956,0.6998,0.6959,0.696,0.689,0.6881,0.6857,0.6774,0.6769,0.6817,0.6813,0.6811,0.6809,0,0,0,0,0,0,0,0.7202,0.7188,0.7056,0.7073,0.7068,0.706,0.7048,0.6992,0.6939,0.6994,0.6992,0.6979,0.6888,0.6863,0.6854,0.6767,0.6817,0.6812,0.6808,0.6806,0.6633,0.6631,0,0,0,0,0,0,0.7214,0.7194,0.7059,0.7052,0.7135,0.7056,0.7043,0.7012,0.694,0.693,0.6978,0.6978,0.6872,0.6861,0.685,0.678,0.6811,0.6806,0.6802,0.6634,0.6632,0.6631,0,0,0,0,0,0,0.7218,0.7203,0.7064,0.7122,0.7104,0.7052,0.7018,0.7009,0.6984,0.6928,0.6918,0.6963,0.6872,0.6858,0.6797,0.6776,0.6803,0.6798,0.6635,0.6633,0.6632,0.6641,0,0,0,0,0,0,0.7224,0.7204,0.7184,0.7122,0.7101,0.7013,0.7016,0.7006,0.6975,0.6974,0.6911,0.6901,0.6872,0.6806,0.6792,0.6769,0.6794,0.6637,0.6634,0.6632,0.6642,0.664,0.6637,0,0,0,0,0,0.723,0.719,0.7183,0.7166,0.7074,0.7012,0.7,0.6968,0.6974,0.6952,0.6916,0.6903,0.6781,0.68,0.6784,0.6759,0.6638,0.6635,0.6632,0.6643,0.664,0.6637,0,0,0,0,0,0,0.7249,0.7182,0.7172,0.7111,0.7068,0.7007,0.6979,0.6965,0.6918,0.6919,0.688,0.6866,0.6808,0.6777,0.6799,0.6702,0.6709,0.6703,0.6723,0.672,0.6717,0.6725,0.6789,0,0,0,0,0,0.7247,0.7203,0.7146,0.7097,0.7076,0.7031,0.7003,0.6982,0.6935,0.6916,0.6875,0.6829,0.678,0.6749,0.6701,0.6639,0.6624,0.6613,0.6611,0.6609,0.6604,0.6567,0.6562,0.6622,0.6622,0.6622,0,0,0.724,0.7197,0.7172,0.71,0.7063,0.7018,0.7016,0.6968,0.6933,0.6908,0.6848,0.6817,0.6763,0.6701,0.6672,0.6674,0.6584,0.6606,0.6605,0.66,0.6564,0.6558,0.6553,0.662,0.662,0.662,0,0,0.7204,0.7168,0.7123,0.7087,0.7033,0.7004,0.6993,0.6934,0.6913,0.6852,0.6833,0.6791,0.6708,0.667,0.6639,0.659,0.6576,0.6576,0.6562,0.6527,0.6522,0.6518,0.6498,0.6492,0.6571,0.6571,0.6571,0,0.7202,0.7133,0.7102,0.7054,0.7022,0.7,0.6953,0.692,0.6852,0.683,0.6834,0.6729,0.6691,0.662,0.6608,0.6585,0.657,0.6581,0.6526,0.6521,0.6516,0.6497,0.649,0.6571,0.6571,0.6571,0.6571,0,0.7133,0.7085,0.7055,0.6991,0.6957,0.691,0.6871,0.6839,0.6822,0.6792,0.673,0.6684,0.6626,0.6608,0.659,0.6533,0.6536,0.6534,0.654,0.6511,0.6493,0.6485,0.6571,0.6571,0.6571,0.6571,0,0,0.7103,0.7024,0.7013,0.6983,0.6922,0.6884,0.6837,0.6781,0.6753,0.6708,0.6666,0.6597,0.6594,0.6559,0.6537,0.6507,0.6469,0.6508,0.6506,0.6501,0.6402,0.6403,0.6395,0.6461,0.6459,0.6458,0.6406,0,0.7058,0.6973,0.6943,0.6872,0.6827,0.6805,0.6763,0.6721,0.6692,0.6649,0.6616,0.6567,0.6568,0.6547,0.6516,0.648,0.6448,0.6484,0.6419,0.6417,0.6431,0.6385,0.6386,0.6339,0.6398,0.6397,0.6396,0,0.6994,0.6948,0.6872,0.6816,0.6796,0.6759,0.6705,0.6665,0.6616,0.6597,0.6559,0.654,0.6488,0.6499,0.6426,0.6451,0.6423,0.6402,0.6399,0.639,0.6403,0.6373,0.6323,0.6315,0.6385,0.6386,0.6387,0,0.6978,0.6898,0.6841,0.6817,0.6751,0.6725,0.6696,0.6648,0.6617,0.6569,0.6548,0.6496,0.6466,0.6425,0.6392,0.6404,0.6321,0.633,0.6302,0.6303,0.6284,0.6285,0.6227,0.627,0.627,0.627,0.627,0,0.6929,0.6883,0.6833,0.6799,0.6746,0.6713,0.6662,0.6632,0.6589,0.6548,0.6526,0.6487,0.6446,0.6402,0.6375,0.6318,0.6305,0.6287,0.628,0.6288,0.629,0.6267,0.6269,0.6268,0.6269,0.6269,0.6269,0,0.6901,0.6867,0.6804,0.6747,0.6731,0.6695,0.6645,0.661,0.6582,0.6529,0.6515,0.6468,0.6415,0.6378,0.6309,0.6291,0.6228,0.6223,0.6245,0.6241,0.6215,0.6217,0.6138,0.6125,0.6179,0.6179,0.6178,0,0.6872,0.6836,0.6775,0.6746,0.6717,0.6671,0.6639,0.6605,0.6572,0.6513,0.6485,0.6431,0.6385,0.63,0.6259,0.6207,0.6198,0.6174,0.619,0.6199,0.6195,0.6197,0.6193,0.6171,0.6171,0.617,0.617,0,0.6822,0.6806,0.6761,0.6709,0.6672,0.6629,0.6586,0.6564,0.6522,0.6486,0.6432,0.6396,0.6326,0.6272,0.6215,0.6184,0.6169,0.6166,0.6156,0.6162,0.6176,0.6166,0.6236,0.6167,0.6168,0.6168,0.6168,0.6168,0.679,0.6757,0.6709,0.6659,0.6624,0.6585,0.6549,0.6515,0.647,0.641,0.6394,0.6336,0.6288,0.6211,0.6179,0.6133,0.6135,0.6121,0.6117,0.6114,0.6113,0.6185,0.6123,0.6123,0.6123,0.6123,0.6123,0,0.6738,0.6706,0.6661,0.6602,0.6562,0.6554,0.6506,0.6473,0.6424,0.638,0.6336,0.6273,0.622,0.6176,0.6121,0.6093,0.6085,0.6079,0.608,0.6072,0.6116,0.6129,0.6087,0.6087,0.6087,0.6087,0.6087,0.6087,0.6705,0.6648,0.6627,0.6552,0.6521,0.6465,0.6439,0.6402,0.6367,0.6298,0.6254,0.6226,0.6182,0.6124,0.6075,0.6063,0.6043,0.6038,0.6025,0.6066,0.607,0.6073,0.6085,0.6035,0.6035,0.5985,0.5985,0.5984]}]]